Regional Weather Roundup
Issued by NWS

Home | Current Version | Previous Version | Text Only | Print | Product List | Glossary On
Versions: 1 2 3 4 5 6 7 8 9 10 11 12 13 14 15 16 17 18 19 20 21 22 23 24 25 26 27 28 29 30 31 32 33 34 35 36 37 38 39 40 41 42 43 44 45 46 47 48 49 50
000
ASUS44 KEWX 230103
RWRTX
SOUTH TEXAS REGIONAL WEATHER ROUNDUP
NATIONAL WEATHER SERVICE AUSTIN/SAN ANTONIO TX
800 PM CDT FRI MAY 22 2015

NOTE: "FAIR" INDICATED FEW OR NO CLOUDS BELOW 12,000 FEET WITH NO
SIGNIFICANT WEATHER AND/OR OBSTRUCTIONS TO VISIBILITY.

* - THESE STATIONS ARE NOT NWS OR FAA STATIONS...AND ARE NOT SUBJECT
    TO NWS AND FAA QUALITY CONTROL.

TXZ171-172-183>190-230200-
TEXAS HILL COUNTRY AND EDWARDS PLATEAU

CITY           SKY/WX    TMP DP  RH WIND       PRES   REMARKS
JUNCTION       CLEAR     78  67  68 SE9       30.02S
*LLANO         CLOUDY    75  72  88 SE10G16   30.07S
BURNET         CLOUDY    73  69  87 E7        30.07S
*HORSESHOE BAY CLOUDY    74  71  90 SE7       30.05S FOG
*KERRVILLE     MOCLDY    76  71  83 E9        30.04R
*FREDERICKSBRG MOCLDY    74  70  86 E3        30.05R
*ROCKSPRINGS   MOCLDY    75  68  78 SE8       30.04F
*BOERNE STAGE    N/A     73  70  88 SE8G17    30.06R
*CASTROVILLE   MOCLDY    81  71  71 E13G18    30.01R
HONDO          MOCLDY    81  72  74 SE12      30.01R
*UVALDE        MOCLDY    81  72  75 SE9       29.97F
DEL RIO        MOCLDY    82  70  66 SE12G21   29.92F
LAUGHLIN AFB   NOT AVBL
CARRIZO SPRGS  PTCLDY    82  72  69 SE7       29.93S
$$

TXZ173-191>194-202-209-217>225-228-230200-
CENTRAL AND SOUTH CENTRAL TEXAS

CITY           SKY/WX    TMP DP  RH WIND       PRES   REMARKS
GEORGETOWN     CLOUDY    73  72  94 VRB6      30.05R
AUSTIN/BERGSTM CLOUDY    77  72  84 E8        30.03R
AUSTIN/MABRY   CLOUDY    76  71  85 E5        30.05R
*AUSTIN/EXEC   CLOUDY    75  72  88 E8        30.06R
*LAGO VISTA    CLOUDY    74  71  90 E7        30.07R FOG
SAN MARCOS     CLOUDY    77  72  83 E10       30.04R
NEW BRAUNFELS  MOCLDY    78  73  84 SE15      30.01S
RANDOLPH AFB   PTCLDY    78  73  84 E8        30.02R
PT SAN ANTONIO MOCLDY    79  74  83 SE13      30.00R
SAN ANTONIO    MOCLDY    78  73  84 SE13      30.03R
STINSON FIELD  PTCLDY    80  74  81 SE12      29.99R
*PLEASANTON    MOCLDY    81  73  76 E10G18    29.99R
*LA GRANGE     CLOUDY    79  73  83 SE9       30.04R
*GIDDINGS      CLOUDY    76  69  79 SE6       30.10R
*GONZALES      PTCLDY    77  76  95 SE10G16   30.03R
$$

TXZ163>164-176>182-195>201-210>213-226-227-235-230200-
SOUTHEAST TEXAS

CITY           SKY/WX    TMP DP  RH WIND       PRES   REMARKS
COLLEGE STN    PTCLDY    76  69  79 E10       30.07S
*BRYAN         MOCLDY    74  70  86 SE8       30.09R
*CALDWELL      CLOUDY    75  72  88 MISG      30.10R
*CROCKETT      NOT AVBL
*BRENHAM       CLEAR     77  71  80 E7        30.08R
HUNTSVILLE     CLOUDY    75  67  76 SE3       30.11R
CONROE           N/A     73  67  81 E3        30.11S
HOUSTON BUSH   MOCLDY    75  69  81 E10       30.09S
HOUSTON HOBBY  MOCLDY    78  72  81 E9        30.07S
*HOUSTON SW AP MOCLDY    78  75  91 E7        30.09R
PEARLAND       MOCLDY    78  73  84 E8        30.09S
HOUSTON HOOKS  CLOUDY    76  68  76 E8        30.09S
ELLINGTON FLD  MOCLDY    77  72  83 E7        30.10S
SUGAR LAND     MOCLDY    78  71  79 E9        30.07S
*HOUSTON EXEC  CLOUDY    77  70  78 SE10      30.09R
*CLEVELAND MUN MOCLDY    73  71  91 CALM      30.12R FOG
*WHARTON       CLOUDY    77  73  85 E10       30.06S
*COLUMBUS      CLOUDY    75  73  93 SE5       30.06R
$$

TXZ214>216-236>238-230200-
THE UPPER TEXAS COAST

CITY           SKY/WX    TMP DP  RH WIND       PRES   REMARKS
*ORANGE        MOCLDY    77  69  75 E3        30.13S
PORT ARTHUR    PTCLDY    78  70  76 E9        30.10S
GALVESTON      MOCLDY    78  75  90 E14       30.09R
ANGLETON       MOCLDY    75  75 100 E6        30.06S
*BAY CITY      CLOUDY    77  76  96 E6        30.06R
PALACIOS       CLOUDY    79  74  84 E12       30.04R
$$

TXZ229>234-239>247-230200-
TEXAS COASTAL BEND AND RIO GRANDE PLAINS

CITY           SKY/WX    TMP DP  RH WIND       PRES   REMARKS
VICTORIA       CLOUDY    77  74  90 E13       30.03S
*BEEVILLE      CLOUDY    80  77  92 SE10      30.00R
ROCKPORT       CLOUDY    81  75  82 SE17      30.01R
*PORT ARANSAS  CLOUDY    80  76  86 SE12      30.00S
*PORT LAVACA   CLOUDY    79  73  83 E13       30.03S
*INGLESIDE     CLOUDY    83  76  80 SE14G21   30.00R HX  90
CORPUS CHRISTI CLOUDY    81  75  82 SE15      29.99S
CORPUS NAS     MOCLDY    80  76  87 SE17      30.00R
*ROBSTOWN      CLOUDY    82  77  87 SE9       29.99S
ALICE          CLOUDY    82  75  79 SE13G43   29.98R
KINGSVILLE NAS MOCLDY    82  78  88 SE12      29.98R HX  91
COTULLA        TSTM      81  76  84 E8        29.96R
*FAITH RANCH     N/A     84  70  61 SE8       29.94S
LAREDO         PTCLDY    87  72  61 SE13      29.96R HX  93
$$

TXZ248>255-230200-
DEEP SOUTH TEXAS

CITY           SKY/WX    TMP DP  RH WIND       PRES   REMARKS
BROWNSVILLE    MOCLDY    81  74  79 SE10      29.97S
PORT ISABEL    MOCLDY    81  75  82 SE14      29.96S
*SOUTH PADRE     N/A     84  82  94 S12       29.98S HX 101
HARLINGEN      PTCLDY    83  74  74 SE12      29.95F
*HEBBRONVILLE    N/A     83  73  73 E10       29.98R
MCALLEN        MOCLDY    85  74  69 SE10      29.95S HX  92
*WESLACO       PTCLDY    83  72  69 SE10      29.95S
FALFURRIAS     CLOUDY    83  75  78 E8        29.96R HX  90
EDINBURG       MOCLDY    85  73  68 SE10      29.95S HX  92
*ZAPATA        MOCLDY    84  73  69 SE5       29.93S HX  90
$$

TXZ213>215-236>238-242>244-246-247-251-254-255-230200-
CMAN STATIONS

STATION/POSITION TIME  TEMP    WIND        PRES    WAVE
                       AIR SEA DIR/SP/G            HT/PER
                 (UTC) (F)     (DEG/KT/KT) (MB)    (FT/S)
$$

GMZ080-GMZ150>470-230200-
OFFSHORE BUOY REPORTS

STATION/POSITION TIME  TEMP    WIND        PRES    WAVE
                       AIR SEA DIR/SP/G            HT/PER
                 (UTC) (F)     (DEG/KT/KT) (MB)    (FT/S)
$$



USA.gov is the U.S. government's official web portal to all federal, state and local government web resources and services.